Time,TemperatureF,DewpointF,PressureIn,WindDirection,WindDirectionDegrees,WindSpeedMPH,WindSpeedGustMPH,Humidity,HourlyPrecipIn,Conditions,Clouds,dailyrainin,SolarRadiationWatts/m^2,SoftwareType,DateUTC
2013-01-11 00:04:00,41.6,29.5,30.18,West,277,1.2,2.3,62,0.00,,,0.00,0.0,WeatherDisplay:10.37,2013-01-11 08:04:00,
2013-01-11 00:09:00,41.7,29.6,30.18,WNW,288,6.4,6.9,62,0.00,,,0.00,0.0,WeatherDisplay:10.37,2013-01-11 08:09:00,
2013-01-11 00:14:00,42.1,30.0,30.18,West,273,4.9,6.9,62,0.00,,,0.00,0.0,WeatherDisplay:10.37,2013-01-11 08:14:00,
2013-01-11 00:19:00,42.3,29.8,30.18,WNW,299,1.9,5.0,61,0.00,,,0.00,0.0,WeatherDisplay:10.37,2013-01-11 08:19:00,
2013-01-11 00:24:00,42.4,29.9,30.18,West,267,0.9,2.3,61,0.00,,,0.00,0.0,WeatherDisplay:10.37,2013-01-11 08:24:00,
2013-01-11 00:29:00,42.5,30.0,30.18,NNW,346,3.9,8.1,61,0.00,,,0.00,0.0,WeatherDisplay:10.37,2013-01-11 08:29:00,
2013-01-11 00:31:00,42.5,30.0,30.17,WNW,282,1.0,2.0,61,0.00,CLR,,0.00,0.0,WeatherDisplay:10.37,2013-01-11 08:31:00,
2013-01-11 00:36:00,42.4,30.3,30.18,WNW,282,8.0,14.0,62,0.00,CLR,,0.00,0.0,WeatherDisplay:10.37,2013-01-11 08:36:00,
2013-01-11 00:41:00,42.5,30.4,30.17,West,270,2.0,11.0,62,0.00,CLR,,0.00,0.0,WeatherDisplay:10.37,2013-01-11 08:41:00,
2013-01-11 00:46:00,42.4,30.3,30.17,West,272,1.0,9.0,62,0.00,CLR,,0.00,0.0,WeatherDisplay:10.37,2013-01-11 08:46:00,
2013-01-11 00:51:00,42.3,30.6,30.18,WNW,283,1.0,6.0,63,0.00,CLR,,0.00,0.0,WeatherDisplay:10.37,2013-01-11 08:51:00,
2013-01-11 00:56:00,42.2,30.5,30.17,WNW,293,2.0,8.0,63,0.00,CLR,,0.00,0.0,WeatherDisplay:10.37,2013-01-11 08:56:00,
2013-01-11 01:01:00,42.1,30.4,30.17,WNW,285,0.0,4.0,63,0.00,CLR,,0.00,0.0,WeatherDisplay:10.37,2013-01-11 09:01:00,
2013-01-11 01:06:00,41.9,30.6,30.17,West,278,1.0,4.0,64,0.00,CLR,,0.00,0.0,WeatherDisplay:10.37,2013-01-11 09:06:00,
2013-01-11 01:11:00,41.9,30.6,30.17,West,280,1.0,8.0,64,0.00,CLR,,0.00,0.0,WeatherDisplay:10.37,2013-01-11 09:11:00,
2013-01-11 01:16:00,42.0,30.3,30.17,West,274,2.0,7.0,63,0.00,CLR,,0.00,0.0,WeatherDisplay:10.37,2013-01-11 09:16:00,
2013-01-11 01:21:00,42.1,30.4,30.17,WNW,283,9.0,14.0,63,0.00,CLR,,0.00,0.0,WeatherDisplay:10.37,2013-01-11 09:21:00,
2013-01-11 01:26:00,42.2,30.5,30.17,WNW,285,2.0,11.0,63,0.00,CLR,,0.00,0.0,WeatherDisplay:10.37,2013-01-11 09:26:00,
2013-01-11 01:31:00,42.3,30.2,30.17,West,280,3.0,9.0,62,0.00,CLR,,0.00,0.0,WeatherDisplay:10.37,2013-01-11 09:31:00,
2013-01-11 01:36:00,42.5,30.4,30.17,West,276,3.0,16.0,62,0.00,CLR,,0.00,0.0,WeatherDisplay:10.37,2013-01-11 09:36:00,
2013-01-11 01:41:00,42.5,30.0,30.17,West,272,3.0,7.0,61,0.00,CLR,,0.00,0.0,WeatherDisplay:10.37,2013-01-11 09:41:00,
2013-01-11 01:46:00,42.5,30.0,30.18,West,276,1.0,8.0,61,0.00,CLR,,0.00,0.0,WeatherDisplay:10.37,2013-01-11 09:46:00,
2013-01-11 01:51:00,42.4,29.9,30.17,WNW,290,0.0,9.0,61,0.00,CLR,,0.00,0.0,WeatherDisplay:10.37,2013-01-11 09:51:00,
2013-01-11 01:56:00,42.3,29.8,30.18,WNW,291,3.0,7.0,61,0.00,CLR,,0.00,0.0,WeatherDisplay:10.37,2013-01-11 09:56:00,
2013-01-11 02:01:00,42.3,29.8,30.18,WNW,286,3.0,13.0,61,0.00,CLR,,0.00,0.0,WeatherDisplay:10.37,2013-01-11 10:01:00,
2013-01-11 02:06:00,42.4,29.5,30.18,WNW,283,1.0,10.0,60,0.00,CLR,,0.00,0.0,WeatherDisplay:10.37,2013-01-11 10:06:00,
2013-01-11 02:11:00,42.4,29.5,30.17,West,278,1.0,8.0,60,0.00,CLR,,0.00,0.0,WeatherDisplay:10.37,2013-01-11 10:11:00,
2013-01-11 02:16:00,42.4,29.5,30.18,WNW,290,0.0,8.0,60,0.00,CLR,,0.00,0.0,WeatherDisplay:10.37,2013-01-11 10:16:00,
2013-01-11 02:21:00,42.4,29.5,30.17,WNW,293,1.0,11.0,60,0.00,CLR,,0.00,0.0,WeatherDisplay:10.37,2013-01-11 10:21:00,
2013-01-11 02:26:00,42.5,30.0,30.17,WNW,293,3.0,7.0,61,0.00,CLR,,0.00,0.0,WeatherDisplay:10.37,2013-01-11 10:26:00,
2013-01-11 02:31:00,42.4,29.9,30.17,NW,319,2.0,5.0,61,0.00,CLR,,0.00,0.0,WeatherDisplay:10.37,2013-01-11 10:31:00,
2013-01-11 02:36:00,42.4,29.9,30.17,NNW,343,3.0,8.0,61,0.00,CLR,,0.00,0.0,WeatherDisplay:10.37,2013-01-11 10:36:00,
2013-01-11 02:41:00,42.4,29.9,30.17,North,1,3.0,10.0,61,0.00,CLR,,0.00,0.0,WeatherDisplay:10.37,2013-01-11 10:41:00,
2013-01-11 02:46:00,42.5,30.0,30.17,North,5,3.0,15.0,61,0.00,CLR,,0.00,0.0,WeatherDisplay:10.37,2013-01-11 10:46:00,
2013-01-11 02:51:00,42.5,30.0,30.17,North,349,1.0,12.0,61,0.00,CLR,,0.00,0.0,WeatherDisplay:10.37,2013-01-11 10:51:00,
2013-01-11 02:56:00,42.6,29.7,30.17,NNW,339,6.0,11.0,60,0.00,CLR,,0.00,0.0,WeatherDisplay:10.37,2013-01-11 10:56:00,
2013-01-11 03:01:00,42.8,29.9,30.18,North,2,6.0,11.0,60,0.00,CLR,,0.00,0.0,WeatherDisplay:10.37,2013-01-11 11:01:00,
2013-01-11 03:06:00,42.7,29.8,30.18,North,10,5.0,8.0,60,0.00,CLR,,0.00,0.0,WeatherDisplay:10.37,2013-01-11 11:06:00,
2013-01-11 03:11:00,42.6,29.7,30.18,NNE,16,1.0,8.0,60,0.00,CLR,,0.00,0.0,WeatherDisplay:10.37,2013-01-11 11:11:00,
2013-01-11 03:16:00,42.4,29.5,30.18,North,9,1.0,4.0,60,0.00,CLR,,0.00,0.0,WeatherDisplay:10.37,2013-01-11 11:16:00,
2013-01-11 03:21:00,42.2,29.3,30.18,North,2,0.0,9.0,60,0.00,CLR,,0.00,0.0,WeatherDisplay:10.37,2013-01-11 11:21:00,
2013-01-11 03:26:00,42.0,29.5,30.18,North,11,0.0,3.0,61,0.00,CLR,,0.00,0.0,WeatherDisplay:10.37,2013-01-11 11:26:00,
2013-01-11 03:31:00,41.6,29.5,30.18,North,8,0.0,4.0,62,0.00,CLR,,0.00,0.0,WeatherDisplay:10.37,2013-01-11 11:31:00,
2013-01-11 03:36:00,41.4,29.3,30.18,NW,315,0.0,2.0,62,0.00,CLR,,0.00,0.0,WeatherDisplay:10.37,2013-01-11 11:36:00,
2013-01-11 03:41:00,41.4,29.3,30.18,WNW,299,3.0,9.0,62,0.00,CLR,,0.00,0.0,WeatherDisplay:10.37,2013-01-11 11:41:00,
2013-01-11 03:46:00,41.5,29.0,30.18,NW,308,3.0,6.0,61,0.00,CLR,,0.00,0.0,WeatherDisplay:10.37,2013-01-11 11:46:00,
2013-01-11 03:51:00,41.7,29.2,30.18,NW,304,0.0,6.0,61,0.00,CLR,,0.00,0.0,WeatherDisplay:10.37,2013-01-11 11:51:00,
2013-01-11 03:56:00,41.9,29.0,30.18,WNW,290,3.0,8.0,60,0.00,CLR,,0.00,0.0,WeatherDisplay:10.37,2013-01-11 11:56:00,
2013-01-11 04:01:00,42.1,28.8,30.18,West,279,0.0,5.0,59,0.00,CLR,,0.00,0.0,WeatherDisplay:10.37,2013-01-11 12:01:00,
2013-01-11 04:06:00,42.0,28.7,30.18,WSW,251,1.0,3.0,59,0.00,CLR,,0.00,0.0,WeatherDisplay:10.37,2013-01-11 12:06:00,
2013-01-11 04:11:00,41.7,28.8,30.18,NE,36,1.0,3.0,60,0.00,CLR,,0.00,0.0,WeatherDisplay:10.37,2013-01-11 12:11:00,
2013-01-11 04:16:00,41.4,28.9,30.18,NNE,21,1.0,6.0,61,0.00,CLR,,0.00,0.0,WeatherDisplay:10.37,2013-01-11 12:16:00,
2013-01-11 04:21:00,41.5,28.6,30.18,NW,325,0.0,4.0,60,0.00,CLR,,0.00,0.0,WeatherDisplay:10.37,2013-01-11 12:21:00,
2013-01-11 04:26:00,41.3,28.9,30.18,NW,315,1.0,2.0,61,0.00,CLR,,0.00,0.0,WeatherDisplay:10.37,2013-01-11 12:26:00,
2013-01-11 04:31:00,41.3,28.4,30.18,NW,308,0.0,3.0,60,0.00,CLR,,0.00,0.0,WeatherDisplay:10.37,2013-01-11 12:31:00,
2013-01-11 04:36:00,41.6,28.3,30.17,West,279,1.0,7.0,59,0.00,CLR,,0.00,0.0,WeatherDisplay:10.37,2013-01-11 12:36:00,
2013-01-11 04:41:00,41.8,28.5,30.17,WNW,303,3.0,8.0,59,0.00,CLR,,0.00,0.0,WeatherDisplay:10.37,2013-01-11 12:41:00,
2013-01-11 04:46:00,42.0,28.3,30.17,NW,317,3.0,9.0,58,0.00,CLR,,0.00,0.0,WeatherDisplay:10.37,2013-01-11 12:46:00,
2013-01-11 04:51:00,42.3,28.6,30.18,West,270,3.0,17.0,58,0.00,CLR,,0.00,0.0,WeatherDisplay:10.37,2013-01-11 12:51:00,
2013-01-11 04:56:00,42.7,28.5,30.17,West,276,3.0,14.0,57,0.00,CLR,,0.00,0.0,WeatherDisplay:10.37,2013-01-11 12:56:00,
2013-01-11 05:01:00,42.9,28.7,30.17,WNW,290,6.0,11.0,57,0.00,CLR,,0.00,0.0,WeatherDisplay:10.37,2013-01-11 13:01:00,
2013-01-11 05:06:00,42.9,28.7,30.18,WNW,292,2.0,12.0,57,0.00,CLR,,0.00,0.0,WeatherDisplay:10.37,2013-01-11 13:06:00,
2013-01-11 05:11:00,42.7,28.5,30.18,West,278,3.0,7.0,57,0.00,CLR,,0.00,0.0,WeatherDisplay:10.37,2013-01-11 13:11:00,
2013-01-11 05:16:00,42.6,28.8,30.18,WNW,284,3.0,7.0,58,0.00,CLR,,0.00,0.0,WeatherDisplay:10.37,2013-01-11 13:16:00,
2013-01-11 05:21:00,42.5,28.8,30.19,NNW,333,1.0,6.0,58,0.00,CLR,,0.00,0.0,WeatherDisplay:10.37,2013-01-11 13:21:00,
2013-01-11 05:26:00,42.3,28.6,30.19,North,3,3.0,9.0,58,0.00,CLR,,0.00,0.0,WeatherDisplay:10.37,2013-01-11 13:26:00,
2013-01-11 05:31:00,42.2,28.9,30.19,NNE,12,2.0,8.0,59,0.00,CLR,,0.00,0.0,WeatherDisplay:10.37,2013-01-11 13:31:00,
2013-01-11 05:36:00,42.1,29.2,30.19,NNE,23,1.0,5.0,60,0.00,CLR,,0.00,0.0,WeatherDisplay:10.37,2013-01-11 13:36:00,
2013-01-11 05:41:00,42.2,29.3,30.19,North,355,1.0,10.0,60,0.00,CLR,,0.00,0.0,WeatherDisplay:10.37,2013-01-11 13:41:00,
2013-01-11 05:46:00,42.2,29.3,30.20,NW,309,0.0,3.0,60,0.00,CLR,,0.00,0.0,WeatherDisplay:10.37,2013-01-11 13:46:00,
2013-01-11 05:51:00,42.2,29.3,30.20,WNW,299,0.0,6.0,60,0.00,CLR,,0.00,0.0,WeatherDisplay:10.37,2013-01-11 13:51:00,
2013-01-11 05:56:00,42.1,29.6,30.20,West,280,1.0,5.0,61,0.00,CLR,,0.00,0.0,WeatherDisplay:10.37,2013-01-11 13:56:00,
2013-01-11 06:01:00,42.0,29.5,30.20,West,281,3.0,5.0,61,0.00,CLR,,0.00,0.0,WeatherDisplay:10.37,2013-01-11 14:01:00,
2013-01-11 06:06:00,42.0,29.5,30.19,West,281,3.0,7.0,61,0.00,CLR,,0.00,0.0,WeatherDisplay:10.37,2013-01-11 14:06:00,
2013-01-11 06:11:00,42.1,29.2,30.19,West,271,0.0,6.0,60,0.00,CLR,,0.00,0.0,WeatherDisplay:10.37,2013-01-11 14:11:00,
2013-01-11 06:16:00,42.0,29.1,30.20,WNW,283,2.0,4.0,60,0.00,CLR,,0.00,0.0,WeatherDisplay:10.37,2013-01-11 14:16:00,
2013-01-11 06:21:00,41.9,29.0,30.20,NW,311,1.0,8.0,60,0.00,CLR,,0.00,0.0,WeatherDisplay:10.37,2013-01-11 14:21:00,
2013-01-11 06:26:00,41.8,28.9,30.20,North,5,1.0,9.0,60,0.00,CLR,,0.00,0.0,WeatherDisplay:10.37,2013-01-11 14:26:00,
2013-01-11 06:31:00,41.8,28.9,30.20,NNE,22,6.0,9.0,60,0.00,CLR,,0.00,0.0,WeatherDisplay:10.37,2013-01-11 14:31:00,
2013-01-11 06:36:00,41.7,28.8,30.20,NNE,24,3.0,11.0,60,0.00,CLR,,0.00,0.0,WeatherDisplay:10.37,2013-01-11 14:36:00,
2013-01-11 06:41:00,41.5,29.0,30.20,NNE,29,1.0,4.0,61,0.00,CLR,,0.00,0.0,WeatherDisplay:10.37,2013-01-11 14:41:00,
2013-01-11 06:46:00,41.1,29.1,30.20,NNE,28,5.0,9.0,62,0.00,CLR,,0.00,0.0,WeatherDisplay:10.37,2013-01-11 14:46:00,
2013-01-11 06:51:00,41.1,29.1,30.21,NNE,22,2.0,7.0,62,0.00,CLR,,0.00,0.0,WeatherDisplay:10.37,2013-01-11 14:51:00,
2013-01-11 06:56:00,41.1,29.1,30.21,NNE,22,3.0,6.0,62,0.00,CLR,,0.00,0.0,WeatherDisplay:10.37,2013-01-11 14:56:00,
2013-01-11 07:01:00,40.9,29.3,30.21,NNE,22,0.0,5.0,63,0.00,CLR,,0.00,0.0,WeatherDisplay:10.37,2013-01-11 15:01:00,
2013-01-11 07:06:00,40.6,29.4,30.21,North,359,3.0,5.0,64,0.00,CLR,,0.00,0.0,WeatherDisplay:10.37,2013-01-11 15:06:00,
2013-01-11 07:11:00,40.4,29.6,30.21,WNW,297,0.0,5.0,65,0.00,CLR,,0.00,0.0,WeatherDisplay:10.37,2013-01-11 15:11:00,
2013-01-11 07:16:00,40.2,29.7,30.22,West,273,1.0,5.0,66,0.00,CLR,,0.00,0.0,WeatherDisplay:10.37,2013-01-11 15:16:00,
2013-01-11 07:21:00,40.1,30.0,30.22,West,270,2.0,4.0,67,0.00,CLR,,0.00,0.0,WeatherDisplay:10.37,2013-01-11 15:21:00,
2013-01-11 07:26:00,40.0,29.9,30.22,West,270,2.0,5.0,67,0.00,CLR,,0.00,5.0,WeatherDisplay:10.37,2013-01-11 15:26:00,
2013-01-11 07:31:00,39.9,29.8,30.22,West,270,2.0,6.0,67,0.00,CLR,,0.00,9.0,WeatherDisplay:10.37,2013-01-11 15:31:00,
2013-01-11 07:36:00,39.9,29.8,30.22,West,270,0.0,3.0,67,0.00,CLR,,0.00,14.0,WeatherDisplay:10.37,2013-01-11 15:36:00,
2013-01-11 07:41:00,39.8,30.1,30.22,West,270,0.0,2.0,68,0.00,CLR,,0.00,26.0,WeatherDisplay:10.37,2013-01-11 15:41:00,
2013-01-11 07:46:00,40.0,30.3,30.23,West,270,0.0,1.0,68,0.00,CLR,,0.00,39.0,WeatherDisplay:10.37,2013-01-11 15:46:00,
2013-01-11 07:51:00,40.2,30.5,30.23,West,270,3.0,5.0,68,0.00,CLR,,0.00,44.0,WeatherDisplay:10.37,2013-01-11 15:51:00,
2013-01-11 07:56:00,40.7,31.0,30.23,West,270,1.0,5.0,68,0.00,CLR,,0.00,58.0,WeatherDisplay:10.37,2013-01-11 15:56:00,
2013-01-11 08:01:00,41.2,31.1,30.24,West,274,3.0,5.0,67,0.00,CLR,,0.00,77.0,WeatherDisplay:10.37,2013-01-11 16:01:00,
2013-01-11 08:06:00,41.7,31.2,30.23,WNW,284,0.0,3.0,66,0.00,CLR,,0.00,84.0,WeatherDisplay:10.37,2013-01-11 16:06:00,
2013-01-11 08:11:00,42.2,31.3,30.23,WNW,283,1.0,5.0,65,0.00,CLR,,0.00,109.0,WeatherDisplay:10.37,2013-01-11 16:11:00,
2013-01-11 08:16:00,42.7,31.4,30.23,WNW,295,0.0,3.0,64,0.00,SCT,,0.00,58.0,WeatherDisplay:10.37,2013-01-11 16:16:00,
2013-01-11 08:21:00,42.8,31.5,30.23,North,349,0.0,4.0,64,0.00,SCT,,0.00,54.0,WeatherDisplay:10.37,2013-01-11 16:21:00,
2013-01-11 08:26:00,42.9,31.2,30.23,NNE,15,0.0,6.0,63,0.00,BKN,,0.00,49.0,WeatherDisplay:10.37,2013-01-11 16:26:00,
2013-01-11 08:31:00,43.0,31.6,30.23,North,350,1.0,4.0,64,0.00,BKN,,0.00,46.0,WeatherDisplay:10.37,2013-01-11 16:31:00,
2013-01-11 08:36:00,42.9,31.6,30.24,NW,315,0.0,3.0,64,0.00,BKN,,0.00,46.0,WeatherDisplay:10.37,2013-01-11 16:36:00,
2013-01-11 08:41:00,42.9,31.2,30.24,NNW,335,1.0,4.0,63,0.00,BKN,,0.00,46.0,WeatherDisplay:10.37,2013-01-11 16:41:00,
2013-01-11 08:46:00,42.9,31.2,30.24,NNW,347,0.0,2.0,63,0.00,BKN,,0.00,47.0,WeatherDisplay:10.37,2013-01-11 16:46:00,
2013-01-11 08:51:00,42.9,31.2,30.24,NNW,343,1.0,5.0,63,0.00,BKN,,0.00,53.0,WeatherDisplay:10.37,2013-01-11 16:51:00,
2013-01-11 08:56:00,42.9,31.6,30.24,North,354,0.0,2.0,64,0.00,BKN,,0.00,58.0,WeatherDisplay:10.37,2013-01-11 16:56:00,
2013-01-11 09:01:00,43.0,31.6,30.24,North,0,0.0,1.0,64,0.00,BKN,,0.00,67.0,WeatherDisplay:10.37,2013-01-11 17:01:00,
2013-01-11 09:06:00,43.0,31.6,30.24,North,0,1.0,3.0,64,0.00,BKN,,0.00,76.0,WeatherDisplay:10.37,2013-01-11 17:06:00,
2013-01-11 09:11:00,43.1,31.4,30.23,NNW,346,0.0,4.0,63,0.00,BKN,,0.00,82.0,WeatherDisplay:10.37,2013-01-11 17:11:00,
2013-01-11 09:16:00,43.4,31.6,30.23,WNW,293,1.0,2.0,63,0.00,BKN,,0.00,93.0,WeatherDisplay:10.37,2013-01-11 17:16:00,
2013-01-11 09:21:00,43.6,31.4,30.23,WNW,294,0.0,3.0,62,0.00,BKN,,0.00,100.0,WeatherDisplay:10.37,2013-01-11 17:21:00,
2013-01-11 09:26:00,44.0,31.4,30.23,North,7,0.0,2.0,61,0.00,BKN,,0.00,116.0,WeatherDisplay:10.37,2013-01-11 17:26:00,
2013-01-11 09:31:00,44.3,31.7,30.23,NNE,22,0.0,2.0,61,0.00,BKN,,0.00,120.0,WeatherDisplay:10.37,2013-01-11 17:31:00,
2013-01-11 09:36:00,44.5,31.9,30.23,NNE,22,0.0,3.0,61,0.00,BKN,,0.00,114.0,WeatherDisplay:10.37,2013-01-11 17:36:00,
2013-01-11 09:41:00,44.6,32.0,30.23,NNE,22,0.0,2.0,61,0.00,BKN,,0.00,125.0,WeatherDisplay:10.37,2013-01-11 17:41:00,
2013-01-11 09:46:00,44.8,31.8,30.23,NNE,22,0.0,2.0,60,0.00,BKN,,0.00,138.0,WeatherDisplay:10.37,2013-01-11 17:46:00,
2013-01-11 09:51:00,45.0,31.9,30.24,NNE,22,0.0,3.0,60,0.00,BKN,,0.00,141.0,WeatherDisplay:10.37,2013-01-11 17:51:00,
2013-01-11 09:56:00,45.3,31.8,30.24,NNE,22,1.0,3.0,59,0.00,BKN,,0.00,144.0,WeatherDisplay:10.37,2013-01-11 17:56:00,
2013-01-11 10:01:00,45.5,31.6,30.24,NNE,22,0.0,3.0,58,0.00,BKN,,0.00,149.0,WeatherDisplay:10.37,2013-01-11 18:01:00,
2013-01-11 10:06:00,45.7,31.8,30.24,NNE,18,1.0,4.0,58,0.00,SCT,,0.00,169.0,WeatherDisplay:10.37,2013-01-11 18:06:00,
2013-01-11 10:11:00,45.8,31.9,30.24,NNE,12,3.0,6.0,58,0.00,SCT,,0.00,185.0,WeatherDisplay:10.37,2013-01-11 18:11:00,
2013-01-11 10:16:00,45.9,31.5,30.24,North,10,3.0,7.0,57,0.00,BKN,,0.00,151.0,WeatherDisplay:10.37,2013-01-11 18:16:00,
2013-01-11 10:21:00,46.0,31.6,30.24,North,11,3.0,7.0,57,0.00,BKN,,0.00,173.0,WeatherDisplay:10.37,2013-01-11 18:21:00,
2013-01-11 10:26:00,46.0,31.6,30.24,NNE,18,5.0,7.0,57,0.00,BKN,,0.00,174.0,WeatherDisplay:10.37,2013-01-11 18:26:00,
2013-01-11 10:31:00,46.0,32.0,30.24,NNE,23,3.0,8.0,58,0.00,BKN,,0.00,181.0,WeatherDisplay:10.37,2013-01-11 18:31:00,
2013-01-11 10:36:00,46.1,31.7,30.24,NNE,22,2.0,7.0,57,0.00,SCT,,0.00,207.0,WeatherDisplay:10.37,2013-01-11 18:36:00,
2013-01-11 10:41:00,46.2,32.2,30.24,NNE,22,2.0,5.0,58,0.00,SCT,,0.00,234.0,WeatherDisplay:10.37,2013-01-11 18:41:00,
2013-01-11 10:46:00,46.7,33.1,30.24,NNE,22,0.0,5.0,59,0.00,SCT,,0.00,221.0,WeatherDisplay:10.37,2013-01-11 18:46:00,
2013-01-11 10:51:00,46.8,32.4,30.23,NNE,22,0.0,4.0,57,0.00,SCT,,0.00,227.0,WeatherDisplay:10.37,2013-01-11 18:51:00,
2013-01-11 10:56:00,46.8,32.4,30.23,NNE,12,3.0,5.0,57,0.00,FEW,,0.00,301.0,WeatherDisplay:10.37,2013-01-11 18:56:00,
2013-01-11 11:01:00,47.1,32.2,30.22,NNE,16,3.0,5.0,56,0.00,CLR,,0.00,362.0,WeatherDisplay:10.37,2013-01-11 19:01:00,
2013-01-11 11:06:00,47.2,32.7,30.22,NNE,15,1.0,5.0,57,0.00,SCT,,0.00,223.0,WeatherDisplay:10.37,2013-01-11 19:06:00,
2013-01-11 11:11:00,47.4,32.0,30.22,NNE,13,2.0,6.0,55,0.00,SCT,,0.00,246.0,WeatherDisplay:10.37,2013-01-11 19:11:00,
2013-01-11 11:16:00,47.6,32.7,30.22,NNE,22,2.0,4.0,56,0.00,FEW,,0.00,315.0,WeatherDisplay:10.37,2013-01-11 19:16:00,
2013-01-11 11:21:00,47.7,32.3,30.21,NNE,22,0.0,4.0,55,0.00,SCT,,0.00,294.0,WeatherDisplay:10.37,2013-01-11 19:21:00,
2013-01-11 11:26:00,48.1,32.2,30.21,North,8,0.0,3.0,54,0.00,SCT,,0.00,289.0,WeatherDisplay:10.37,2013-01-11 19:26:00,
2013-01-11 11:31:00,48.4,32.0,30.20,North,349,0.0,4.0,53,0.00,SCT,,0.00,291.0,WeatherDisplay:10.37,2013-01-11 19:31:00,
2013-01-11 11:36:00,48.4,32.0,30.20,North,4,3.0,6.0,53,0.00,SCT,,0.00,281.0,WeatherDisplay:10.37,2013-01-11 19:36:00,
2013-01-11 11:41:00,48.6,32.2,30.20,North,4,1.0,4.0,53,0.00,SCT,,0.00,260.0,WeatherDisplay:10.37,2013-01-11 19:41:00,
2013-01-11 11:46:00,48.8,32.4,30.19,North,350,1.0,4.0,53,0.00,SCT,,0.00,283.0,WeatherDisplay:10.37,2013-01-11 19:46:00,
2013-01-11 11:51:00,48.8,32.4,30.19,NNW,346,2.0,5.0,53,0.00,SCT,,0.00,301.0,WeatherDisplay:10.37,2013-01-11 19:51:00,
2013-01-11 11:56:00,48.7,32.8,30.19,North,355,3.0,5.0,54,0.00,SCT,,0.00,313.0,WeatherDisplay:10.37,2013-01-11 19:56:00,
2013-01-11 12:01:00,49.3,33.8,30.19,North,1,0.0,4.0,55,0.00,SCT,,0.00,308.0,WeatherDisplay:10.37,2013-01-11 20:01:00,
2013-01-11 12:06:00,49.4,33.9,30.18,North,3,1.0,4.0,55,0.00,FEW,,0.00,378.0,WeatherDisplay:10.37,2013-01-11 20:06:00,
2013-01-11 12:11:00,49.8,33.8,30.18,NNW,342,2.0,5.0,54,0.00,SCT,,0.00,329.0,WeatherDisplay:10.37,2013-01-11 20:11:00,
2013-01-11 12:16:00,49.5,33.5,30.18,WNW,291,3.0,7.0,54,0.00,SCT,,0.00,330.0,WeatherDisplay:10.37,2013-01-11 20:16:00,
2013-01-11 12:21:00,49.4,33.9,30.17,WNW,283,0.0,7.0,55,0.00,SCT,,0.00,323.0,WeatherDisplay:10.37,2013-01-11 20:21:00,
2013-01-11 12:26:00,50.2,34.2,30.17,WNW,292,3.0,9.0,54,0.00,CLR,,0.00,452.0,WeatherDisplay:10.37,2013-01-11 20:26:00,
2013-01-11 12:31:00,50.3,34.7,30.17,NW,326,1.0,5.0,55,0.00,FEW,,0.00,383.0,WeatherDisplay:10.37,2013-01-11 20:31:00,
2013-01-11 12:36:00,50.3,34.3,30.16,NNW,338,2.0,8.0,54,0.00,FEW,,0.00,345.0,WeatherDisplay:10.37,2013-01-11 20:36:00,
2013-01-11 12:41:00,50.8,34.7,30.16,North,356,3.0,8.0,54,0.00,CLR,,0.00,675.0,WeatherDisplay:10.37,2013-01-11 20:41:00,
2013-01-11 12:46:00,50.9,34.4,30.16,NW,319,3.0,10.0,53,0.00,SCT,,0.00,309.0,WeatherDisplay:10.37,2013-01-11 20:46:00,
2013-01-11 12:51:00,50.8,35.2,30.16,West,267,3.0,8.0,55,0.00,CLR,,0.00,747.0,WeatherDisplay:10.37,2013-01-11 20:51:00,
2013-01-11 12:56:00,51.2,35.1,30.15,WNW,282,3.0,8.0,54,0.00,CLR,,0.00,378.0,WeatherDisplay:10.37,2013-01-11 20:56:00,
2013-01-11 13:01:00,50.8,35.2,30.15,WNW,285,2.0,9.0,55,0.00,CLR,,0.00,436.0,WeatherDisplay:10.37,2013-01-11 21:01:00,
2013-01-11 13:06:00,50.7,35.1,30.15,West,281,3.0,10.0,55,0.00,CLR,,0.00,448.0,WeatherDisplay:10.37,2013-01-11 21:06:00,
2013-01-11 13:11:00,51.2,35.6,30.15,WNW,292,1.0,6.0,55,0.00,FEW,,0.00,345.0,WeatherDisplay:10.37,2013-01-11 21:11:00,
2013-01-11 13:16:00,51.1,35.9,30.15,WNW,282,3.0,12.0,56,0.00,FEW,,0.00,336.0,WeatherDisplay:10.37,2013-01-11 21:16:00,
2013-01-11 13:21:00,50.9,35.7,30.15,WNW,287,1.0,10.0,56,0.00,SCT,,0.00,304.0,WeatherDisplay:10.37,2013-01-11 21:21:00,
2013-01-11 13:26:00,51.3,35.7,30.15,NW,315,3.0,12.0,55,0.00,FEW,,0.00,343.0,WeatherDisplay:10.37,2013-01-11 21:26:00,
2013-01-11 13:31:00,51.8,36.6,30.15,WNW,302,1.0,8.0,56,0.00,CLR,,0.00,642.0,WeatherDisplay:10.37,2013-01-11 21:31:00,
2013-01-11 13:36:00,52.9,36.7,30.14,NW,310,1.0,4.0,54,0.00,CLR,,0.00,494.0,WeatherDisplay:10.37,2013-01-11 21:36:00,
2013-01-11 13:41:00,51.9,36.2,30.14,WNW,298,2.0,9.0,55,0.00,CLR,,0.00,585.0,WeatherDisplay:10.37,2013-01-11 21:41:00,
2013-01-11 13:46:00,51.8,36.6,30.14,West,279,2.0,9.0,56,0.00,CLR,,0.00,569.0,WeatherDisplay:10.37,2013-01-11 21:46:00,
2013-01-11 13:51:00,51.7,36.0,30.14,West,273,2.0,11.0,55,0.00,FEW,,0.00,320.0,WeatherDisplay:10.37,2013-01-11 21:51:00,
2013-01-11 13:56:00,51.5,36.8,30.13,WNW,286,1.0,11.0,57,0.00,CLR,,0.00,566.0,WeatherDisplay:10.37,2013-01-11 21:56:00,
2013-01-11 14:01:00,52.4,37.2,30.14,WNW,301,2.0,5.0,56,0.00,CLR,,0.00,577.0,WeatherDisplay:10.37,2013-01-11 22:01:00,
2013-01-11 14:06:00,53.0,37.7,30.13,WNW,303,3.0,7.0,56,0.00,CLR,,0.00,517.0,WeatherDisplay:10.37,2013-01-11 22:06:00,
2013-01-11 14:11:00,52.6,37.3,30.13,NW,321,5.0,8.0,56,0.00,CLR,,0.00,536.0,WeatherDisplay:10.37,2013-01-11 22:11:00,
2013-01-11 14:16:00,53.0,37.7,30.13,NNW,342,1.0,6.0,56,0.00,CLR,,0.00,527.0,WeatherDisplay:10.37,2013-01-11 22:16:00,
2013-01-11 14:21:00,53.2,37.0,30.13,NNW,335,1.0,8.0,54,0.00,CLR,,0.00,504.0,WeatherDisplay:10.37,2013-01-11 22:21:00,
2013-01-11 14:26:00,52.6,36.9,30.12,NW,308,2.0,9.0,55,0.00,CLR,,0.00,471.0,WeatherDisplay:10.37,2013-01-11 22:26:00,
2013-01-11 14:31:00,52.6,37.3,30.12,NW,304,1.0,6.0,56,0.00,CLR,,0.00,448.0,WeatherDisplay:10.37,2013-01-11 22:31:00,
2013-01-11 14:36:00,52.7,37.4,30.12,NW,309,2.0,3.0,56,0.00,CLR,,0.00,424.0,WeatherDisplay:10.37,2013-01-11 22:36:00,
2013-01-11 14:41:00,52.4,36.7,30.12,WNW,297,1.0,6.0,55,0.00,CLR,,0.00,408.0,WeatherDisplay:10.37,2013-01-11 22:41:00,
2013-01-11 14:46:00,51.8,36.6,30.12,WNW,283,2.0,7.0,56,0.00,CLR,,0.00,396.0,WeatherDisplay:10.37,2013-01-11 22:46:00,
2013-01-11 14:51:00,51.9,36.7,30.12,WNW,284,2.0,4.0,56,0.00,CLR,,0.00,381.0,WeatherDisplay:10.37,2013-01-11 22:51:00,
2013-01-11 14:56:00,51.7,37.4,30.12,NW,321,2.0,7.0,58,0.00,CLR,,0.00,371.0,WeatherDisplay:10.37,2013-01-11 22:56:00,
2013-01-11 15:01:00,51.6,36.4,30.12,NW,313,3.0,9.0,56,0.00,CLR,,0.00,336.0,WeatherDisplay:10.37,2013-01-11 23:01:00,
2013-01-11 15:06:00,51.7,36.9,30.12,WNW,300,2.0,4.0,57,0.00,CLR,,0.00,278.0,WeatherDisplay:10.37,2013-01-11 23:06:00,
2013-01-11 15:11:00,51.1,36.4,30.12,WNW,301,2.0,6.0,57,0.00,SCT,,0.00,142.0,WeatherDisplay:10.37,2013-01-11 23:11:00,
2013-01-11 15:16:00,51.0,37.2,30.12,WNW,292,1.0,6.0,59,0.00,BKN,,0.00,107.0,WeatherDisplay:10.37,2013-01-11 23:16:00,
2013-01-11 15:21:00,50.7,36.5,30.12,WNW,286,3.0,7.0,58,0.00,FEW,,0.00,172.0,WeatherDisplay:10.37,2013-01-11 23:21:00,
2013-01-11 15:26:00,50.5,36.7,30.12,WNW,297,2.0,6.0,59,0.00,SCT,,0.00,109.0,WeatherDisplay:10.37,2013-01-11 23:26:00,
2013-01-11 15:31:00,50.3,36.5,30.12,WNW,294,5.0,9.0,59,0.00,CLR,,0.00,188.0,WeatherDisplay:10.37,2013-01-11 23:31:00,
2013-01-11 15:36:00,50.3,36.9,30.12,WNW,287,1.0,7.0,60,0.00,FEW,,0.00,137.0,WeatherDisplay:10.37,2013-01-11 23:36:00,
2013-01-11 15:41:00,50.2,36.8,30.12,WNW,290,0.0,9.0,60,0.00,FEW,,0.00,128.0,WeatherDisplay:10.37,2013-01-11 23:41:00,
2013-01-11 15:46:00,50.0,37.1,30.12,WNW,293,3.0,6.0,61,0.00,CLR,,0.00,165.0,WeatherDisplay:10.37,2013-01-11 23:46:00,
2013-01-11 15:51:00,49.6,37.1,30.12,West,279,3.0,7.0,62,0.00,SCT,,0.00,105.0,WeatherDisplay:10.37,2013-01-11 23:51:00,
2013-01-11 15:56:00,49.4,36.9,30.12,West,272,3.0,9.0,62,0.00,BKN,,0.00,49.0,WeatherDisplay:10.37,2013-01-11 23:56:00,
2013-01-11 16:01:00,49.1,37.0,30.12,WNW,283,6.0,10.0,63,0.00,BKN,,0.00,48.0,WeatherDisplay:10.37,2013-01-12 00:01:00,
2013-01-11 16:06:00,48.8,36.8,30.12,WNW,287,2.0,11.0,63,0.00,SCT,,0.00,77.0,WeatherDisplay:10.37,2013-01-12 00:06:00,
2013-01-11 16:11:00,48.6,37.0,30.12,WNW,285,3.0,10.0,64,0.00,BKN,,0.00,37.0,WeatherDisplay:10.37,2013-01-12 00:11:00,
2013-01-11 16:16:00,48.3,37.1,30.12,WNW,285,2.0,9.0,65,0.00,BKN,,0.00,21.0,WeatherDisplay:10.37,2013-01-12 00:16:00,
2013-01-11 16:21:00,48.0,36.8,30.11,WNW,291,3.0,6.0,65,0.00,BKN,,0.00,21.0,WeatherDisplay:10.37,2013-01-12 00:21:00,
2013-01-11 16:26:00,47.8,37.0,30.11,West,277,1.0,5.0,66,0.00,BKN,,0.00,19.0,WeatherDisplay:10.37,2013-01-12 00:26:00,
2013-01-11 16:31:00,47.5,37.1,30.11,West,271,3.0,7.0,67,0.00,BKN,,0.00,18.0,WeatherDisplay:10.37,2013-01-12 00:31:00,
2013-01-11 16:36:00,47.3,37.3,30.11,WNW,291,2.0,6.0,68,0.00,BKN,,0.00,16.0,WeatherDisplay:10.37,2013-01-12 00:36:00,
2013-01-11 16:41:00,47.1,37.1,30.11,WNW,302,3.0,8.0,68,0.00,BKN,,0.00,14.0,WeatherDisplay:10.37,2013-01-12 00:41:00,
2013-01-11 16:46:00,46.9,37.3,30.11,WNW,296,1.0,6.0,69,0.00,BKN,,0.00,12.0,WeatherDisplay:10.37,2013-01-12 00:46:00,
2013-01-11 16:51:00,46.7,37.1,30.11,West,278,2.0,5.0,69,0.00,BKN,,0.00,11.0,WeatherDisplay:10.37,2013-01-12 00:51:00,
2013-01-11 16:56:00,46.6,37.3,30.11,West,277,0.0,10.0,70,0.00,SCT,,0.00,9.0,WeatherDisplay:10.37,2013-01-12 00:56:00,
2013-01-11 17:01:00,46.4,37.1,30.11,WNW,288,3.0,8.0,70,0.00,CLR,,0.00,7.0,WeatherDisplay:10.37,2013-01-12 01:01:00,
2013-01-11 17:06:00,46.1,37.2,30.11,WNW,289,3.0,8.0,71,0.00,CLR,,0.00,5.0,WeatherDisplay:10.37,2013-01-12 01:06:00,
2013-01-11 17:11:00,46.0,37.5,30.11,West,278,3.0,8.0,72,0.00,CLR,,0.00,0.0,WeatherDisplay:10.37,2013-01-12 01:11:00,
2013-01-11 17:16:00,45.8,37.3,30.11,West,274,1.0,7.0,72,0.00,CLR,,0.00,0.0,WeatherDisplay:10.37,2013-01-12 01:16:00,
2013-01-11 17:21:00,45.6,37.4,30.11,West,276,1.0,7.0,73,0.00,CLR,,0.00,0.0,WeatherDisplay:10.37,2013-01-12 01:21:00,
2013-01-11 17:26:00,45.4,37.2,30.11,WNW,283,0.0,6.0,73,0.00,CLR,,0.00,0.0,WeatherDisplay:10.37,2013-01-12 01:26:00,
2013-01-11 17:31:00,45.3,37.2,30.11,WNW,284,3.0,7.0,73,0.00,CLR,,0.00,0.0,WeatherDisplay:10.37,2013-01-12 01:31:00,
2013-01-11 17:36:00,45.2,37.4,30.11,WNW,287,2.0,6.0,74,0.00,CLR,,0.00,0.0,WeatherDisplay:10.37,2013-01-12 01:36:00,
2013-01-11 17:41:00,45.0,37.2,30.11,WNW,288,3.0,8.0,74,0.00,CLR,,0.00,0.0,WeatherDisplay:10.37,2013-01-12 01:41:00,
2013-01-11 17:46:00,44.9,37.5,30.11,WNW,294,5.0,10.0,75,0.00,CLR,,0.00,0.0,WeatherDisplay:10.37,2013-01-12 01:46:00,
2013-01-11 17:51:00,44.9,37.5,30.11,WNW,298,1.0,5.0,75,0.00,CLR,,0.00,0.0,WeatherDisplay:10.37,2013-01-12 01:51:00,
2013-01-11 17:56:00,44.8,37.4,30.11,WNW,295,1.0,5.0,75,0.00,CLR,,0.00,0.0,WeatherDisplay:10.37,2013-01-12 01:56:00,
2013-01-11 18:01:00,44.7,37.6,30.11,WNW,299,2.0,10.0,76,0.00,CLR,,0.00,0.0,WeatherDisplay:10.37,2013-01-12 02:01:00,
2013-01-11 18:06:00,44.7,37.6,30.11,WNW,297,2.0,4.0,76,0.00,CLR,,0.00,0.0,WeatherDisplay:10.37,2013-01-12 02:06:00,
2013-01-11 18:11:00,44.6,37.5,30.11,WNW,292,1.0,3.0,76,0.00,CLR,,0.00,0.0,WeatherDisplay:10.37,2013-01-12 02:11:00,
2013-01-11 18:16:00,44.6,37.5,30.11,WNW,292,2.0,6.0,76,0.00,CLR,,0.00,0.0,WeatherDisplay:10.37,2013-01-12 02:16:00,
2013-01-11 18:21:00,44.6,37.5,30.11,WNW,292,2.0,5.0,76,0.00,CLR,,0.00,0.0,WeatherDisplay:10.37,2013-01-12 02:21:00,
2013-01-11 18:26:00,44.5,37.4,30.11,WNW,292,0.0,3.0,76,0.00,CLR,,0.00,0.0,WeatherDisplay:10.37,2013-01-12 02:26:00,
2013-01-11 18:31:00,44.3,37.5,30.11,WNW,292,0.0,4.0,77,0.00,CLR,,0.00,0.0,WeatherDisplay:10.37,2013-01-12 02:31:00,
2013-01-11 18:36:00,44.3,37.5,30.11,WNW,300,2.0,11.0,77,0.00,CLR,,0.00,0.0,WeatherDisplay:10.37,2013-01-12 02:36:00,
2013-01-11 18:41:00,44.3,37.5,30.11,WNW,284,1.0,8.0,77,0.00,CLR,,0.00,0.0,WeatherDisplay:10.37,2013-01-12 02:41:00,
2013-01-11 18:46:00,44.3,37.5,30.11,West,267,3.0,10.0,77,0.00,CLR,,0.00,0.0,WeatherDisplay:10.37,2013-01-12 02:46:00,
2013-01-11 18:51:00,44.3,37.5,30.11,WNW,283,2.0,6.0,77,0.00,CLR,,0.00,0.0,WeatherDisplay:10.37,2013-01-12 02:51:00,
2013-01-11 18:56:00,44.3,37.5,30.11,WNW,292,2.0,4.0,77,0.00,CLR,,0.00,0.0,WeatherDisplay:10.37,2013-01-12 02:56:00,
2013-01-11 19:01:00,44.2,37.4,30.11,WNW,283,0.0,5.0,77,0.00,CLR,,0.00,0.0,WeatherDisplay:10.37,2013-01-12 03:01:00,
2013-01-11 19:06:00,44.2,37.4,30.11,West,279,2.0,7.0,77,0.00,CLR,,0.00,0.0,WeatherDisplay:10.37,2013-01-12 03:06:00,
2013-01-11 19:11:00,44.2,37.4,30.11,NW,310,0.0,5.0,77,0.00,CLR,,0.00,0.0,WeatherDisplay:10.37,2013-01-12 03:11:00,
2013-01-11 19:16:00,44.1,37.7,30.11,NNW,328,1.0,5.0,78,0.00,CLR,,0.00,0.0,WeatherDisplay:10.37,2013-01-12 03:16:00,
2013-01-11 19:21:00,44.1,37.7,30.11,WNW,285,3.0,10.0,78,0.00,CLR,,0.00,0.0,WeatherDisplay:10.37,2013-01-12 03:21:00,
2013-01-11 19:26:00,44.1,37.7,30.11,West,273,1.0,6.0,78,0.00,CLR,,0.00,0.0,WeatherDisplay:10.37,2013-01-12 03:26:00,
2013-01-11 19:31:00,44.0,37.6,30.11,WNW,296,2.0,5.0,78,0.00,CLR,,0.00,0.0,WeatherDisplay:10.37,2013-01-12 03:31:00,
2013-01-11 19:36:00,44.0,37.6,30.11,NW,315,1.0,2.0,78,0.00,CLR,,0.00,0.0,WeatherDisplay:10.37,2013-01-12 03:36:00,
2013-01-11 19:44:00,43.9,37.5,30.11,West,273,2.2,4.6,78,0.00,,,0.00,0.0,WeatherDisplay:10.37,2013-01-12 03:44:00,
2013-01-11 19:46:00,43.9,37.2,30.11,West,281,0.0,5.0,77,0.00,CLR,,0.00,0.0,WeatherDisplay:10.37,2013-01-12 03:46:00,
2013-01-11 19:56:00,43.7,37.0,30.12,West,273,0.0,0.0,77,0.00,,,0.00,0.0,WeatherDisplay:10.37,2013-01-12 03:56:00,
2013-01-11 20:01:00,42.1,34.7,30.12,WSW,256,0.8,3.5,75,0.00,,,0.00,0.0,WeatherDisplay:10.37,2013-01-12 04:01:00,
2013-01-11 20:06:00,42.1,34.7,30.12,SW,225,0.1,3.5,75,0.00,,,0.00,0.0,WeatherDisplay:10.37,2013-01-12 04:06:00,
2013-01-11 20:11:00,42.1,34.7,30.12,SW,222,0.3,1.1,75,0.00,,,0.00,0.0,WeatherDisplay:10.37,2013-01-12 04:11:00,
2013-01-11 20:16:00,41.8,34.5,30.12,SW,217,0.0,3.5,75,0.00,,,0.00,0.0,WeatherDisplay:10.37,2013-01-12 04:16:00,
2013-01-11 20:21:00,41.6,34.3,30.13,SW,218,0.0,1.1,75,0.00,,,0.00,0.0,WeatherDisplay:10.37,2013-01-12 04:21:00,
2013-01-11 20:26:00,41.6,34.3,30.13,SE,142,0.0,0.0,75,0.00,,,0.00,0.0,WeatherDisplay:10.37,2013-01-12 04:26:00,
2013-01-11 20:31:00,41.6,34.3,30.13,SSW,211,0.3,2.3,75,0.00,,,0.00,0.0,WeatherDisplay:10.37,2013-01-12 04:31:00,
2013-01-11 20:36:00,41.6,33.9,30.13,SW,222,0.0,0.0,74,0.00,,,0.00,0.0,WeatherDisplay:10.37,2013-01-12 04:36:00,
2013-01-11 20:41:00,41.5,33.8,30.14,SW,222,0.0,0.0,74,0.00,,,0.00,0.0,WeatherDisplay:10.37,2013-01-12 04:41:00,
2013-01-11 20:46:00,41.1,33.8,30.14,SSW,208,0.0,0.0,75,0.00,,,0.00,0.0,WeatherDisplay:10.37,2013-01-12 04:46:00,
2013-01-11 20:51:00,41.1,33.8,30.14,South,190,0.6,1.1,75,0.00,,,0.00,0.0,WeatherDisplay:10.37,2013-01-12 04:51:00,
2013-01-11 20:56:00,41.2,33.5,30.14,South,169,0.2,1.1,74,0.00,,,0.00,0.0,WeatherDisplay:10.37,2013-01-12 04:56:00,
2013-01-11 21:00:00,41.5,33.8,30.14,SSE,147,0.0,0.0,74,0.00,,,0.00,0.0,WeatherDisplay:10.37,2013-01-12 05:00:00,
2013-01-11 21:02:00,41.5,33.8,30.14,South,191,0.0,0.0,74,0.00,,,0.00,0.0,WeatherDisplay:10.37,2013-01-12 05:02:00,
2013-01-11 21:06:00,41.6,33.5,30.14,South,183,0.0,2.0,73,0.00,,,0.00,0.0,WeatherDisplay:10.37,2013-01-12 05:06:00,
2013-01-11 21:11:00,41.5,33.5,30.14,SSE,168,0.0,0.0,73,0.00,,,0.00,0.0,WeatherDisplay:10.37,2013-01-12 05:11:00,
2013-01-11 21:16:00,41.2,33.2,30.14,South,169,0.0,0.0,73,0.00,,,0.00,0.0,WeatherDisplay:10.37,2013-01-12 05:16:00,
2013-01-11 21:21:00,40.9,33.2,30.14,South,169,0.3,0.0,74,0.00,,,0.00,0.0,WeatherDisplay:10.37,2013-01-12 05:21:00,
2013-01-11 21:26:00,40.3,33.3,30.15,SSW,206,1.3,2.3,76,0.00,,,0.00,0.0,WeatherDisplay:10.37,2013-01-12 05:26:00,
2013-01-11 21:31:00,39.9,33.3,30.15,SW,219,0.0,0.0,77,0.00,,,0.00,0.0,WeatherDisplay:10.37,2013-01-12 05:31:00,
2013-01-11 21:36:00,39.6,33.3,30.15,SW,229,0.0,0.0,78,0.00,,,0.00,0.0,WeatherDisplay:10.37,2013-01-12 05:36:00,
2013-01-11 21:41:00,39.3,33.0,30.15,SW,215,0.2,1.1,78,0.00,,,0.00,0.0,WeatherDisplay:10.37,2013-01-12 05:41:00,
2013-01-11 21:46:00,39.3,33.3,30.15,SSW,211,0.3,2.0,79,0.00,,,0.00,0.0,WeatherDisplay:10.37,2013-01-12 05:46:00,
2013-01-11 21:51:00,39.2,33.2,30.15,SSW,209,0.0,0.0,79,0.00,,,0.00,0.0,WeatherDisplay:10.37,2013-01-12 05:51:00,
2013-01-11 21:56:00,39.1,33.1,30.15,SSW,208,0.0,0.0,79,0.00,,,0.00,0.0,WeatherDisplay:10.37,2013-01-12 05:56:00,
2013-01-11 22:01:00,38.9,32.9,30.15,SSW,207,0.0,0.0,79,0.00,,,0.00,0.0,WeatherDisplay:10.37,2013-01-12 06:01:00,
2013-01-11 22:06:00,38.9,32.6,30.15,SSW,196,0.7,3.5,78,0.00,,,0.00,0.0,WeatherDisplay:10.37,2013-01-12 06:06:00,
2013-01-11 22:11:00,39.2,32.6,30.15,South,189,0.1,0.0,77,0.00,,,0.00,0.0,WeatherDisplay:10.37,2013-01-12 06:11:00,
2013-01-11 22:16:00,39.6,32.3,30.15,SSE,159,0.4,1.1,75,0.00,,,0.00,0.0,WeatherDisplay:10.37,2013-01-12 06:16:00,
2013-01-11 22:21:00,39.8,32.2,30.15,WSW,254,0.3,2.3,74,0.00,,,0.00,0.0,WeatherDisplay:10.37,2013-01-12 06:21:00,
2013-01-11 22:26:00,40.2,32.2,30.15,SSW,205,0.7,3.5,73,0.00,,,0.00,0.0,WeatherDisplay:10.37,2013-01-12 06:26:00,
2013-01-11 22:31:00,40.3,32.0,30.15,WSW,240,0.3,2.3,72,0.00,,,0.00,0.0,WeatherDisplay:10.37,2013-01-12 06:31:00,
2013-01-11 22:36:00,40.3,31.6,30.15,SW,223,0.3,2.3,71,0.00,,,0.00,0.0,WeatherDisplay:10.37,2013-01-12 06:36:00,
2013-01-11 22:41:00,40.3,31.6,30.16,South,191,0.3,1.1,71,0.00,,,0.00,0.0,WeatherDisplay:10.37,2013-01-12 06:41:00,
2013-01-11 22:46:00,40.3,31.6,30.16,SW,224,1.0,1.1,71,0.00,,,0.00,0.0,WeatherDisplay:10.37,2013-01-12 06:46:00,
2013-01-11 22:51:00,40.5,31.5,30.16,SSW,198,2.6,5.8,70,0.00,,,0.00,0.0,WeatherDisplay:10.37,2013-01-12 06:51:00,
2013-01-11 22:56:00,40.6,31.6,30.16,SSW,211,0.0,1.1,70,0.00,,,0.00,0.0,WeatherDisplay:10.37,2013-01-12 06:56:00,
2013-01-11 23:01:00,40.3,31.3,30.16,South,178,0.4,1.1,70,0.00,,,0.00,0.0,WeatherDisplay:10.37,2013-01-12 07:01:00,
2013-01-11 23:06:00,40.2,31.5,30.16,SSW,207,0.3,1.1,71,0.00,CLR,,0.00,0.0,WeatherDisplay:10.37,2013-01-12 07:06:00,
2013-01-11 23:11:00,39.5,30.9,30.17,SSW,207,0.2,1.1,71,0.00,CLR,,0.00,0.0,WeatherDisplay:10.37,2013-01-12 07:11:00,
2013-01-11 23:16:00,39.1,31.2,30.17,SSW,207,0.6,2.3,73,0.00,CLR,,0.00,0.0,WeatherDisplay:10.37,2013-01-12 07:16:00,
2013-01-11 23:21:00,38.3,31.1,30.17,SSW,193,0.0,1.1,75,0.00,CLR,,0.00,0.0,WeatherDisplay:10.37,2013-01-12 07:21:00,
2013-01-11 23:26:00,38.2,31.3,30.17,SSW,196,1.0,3.5,76,0.00,CLR,,0.00,0.0,WeatherDisplay:10.37,2013-01-12 07:26:00,
2013-01-11 23:31:00,38.2,31.3,30.17,South,190,0.2,1.1,76,0.00,CLR,,0.00,0.0,WeatherDisplay:10.37,2013-01-12 07:31:00,
2013-01-11 23:36:00,38.2,31.3,30.17,WSW,237,0.2,3.5,76,0.00,CLR,,0.00,0.0,WeatherDisplay:10.37,2013-01-12 07:36:00,
2013-01-11 23:41:00,38.1,31.5,30.17,SW,214,0.5,2.3,77,0.00,CLR,,0.00,0.0,WeatherDisplay:10.37,2013-01-12 07:41:00,
2013-01-11 23:46:00,37.9,31.3,30.17,SW,223,0.3,2.0,77,0.00,CLR,,0.00,0.0,WeatherDisplay:10.37,2013-01-12 07:46:00,
2013-01-11 23:51:00,37.8,31.2,30.17,SSW,213,0.7,2.3,77,0.00,CLR,,0.00,0.0,WeatherDisplay:10.37,2013-01-12 07:51:00,
2013-01-11 23:56:00,37.6,31.0,30.17,SSW,212,0.6,1.1,77,0.00,CLR,,0.00,0.0,WeatherDisplay:10.37,2013-01-12 07:56:00,